Wind_Speed
6 3 6 3 2 1 4 6 3 3 4 4 17 4 6 3 4 4 16 41 40 39 34 28 26 22 20 19 16 17 17 17 19 19 19 19 20 21 22 22 21 20 19 17 18 16 14 14 12
7 8 4 0 2 4 5 7 7 4 6 17 9 11 2 2 3 14 32 41 39 36 32 27 25 23 21 20 19 19 20 18 17 18 19 19 19 19 20 20 19 19 18 16 15 14 15 14 12
7 3 3 1 2 3 4 6 12 2 20 7 5 5 4 8 8 27 29 30 38 33 30 26 24 23 23 22 20 18 17 18 19 19 18 17 18 17 18 18 18 17 16 14 13 12 14 14 14
4 2 2 3 1 4 6 12 9 8 4 4 12 6 4 6 20 21 27 32 32 32 30 29 25 23 23 22 20 21 21 18 18 19 18 17 16 16 15 17 18 17 15 15 13 13 16 15 17
4 1 3 4 3 7 9 6 12 8 9 5 3 4 10 16 13 18 23 28 29 32 32 29 26 24 22 22 21 20 19 19 17 18 16 17 16 16 16 16 16 16 16 15 15 17 17 19 21
3 2 5 3 7 10 4 2 9 8 1 6 4 4 4 10 16 20 18 22 28 31 31 28 26 23 21 21 22 23 22 20 19 19 16 16 16 16 16 15 15 15 15 15 15 17 18 22 20
4 4 2 1 5 4 3 7 3 3 3 4 1 4 3 17 18 19 18 22 30 30 30 29 26 24 22 20 20 20 22 21 19 18 18 18 17 16 15 14 15 14 13 15 14 17 20 23 22
3 3 5 6 9 4 4 3 5 12 13 9 12 4 4 24 26 23 21 27 31 31 29 28 27 26 24 23 21 21 21 20 19 19 18 18 17 16 15 14 14 16 14 14 15 20 21 24 24
2 4 2 4 4 5 9 3 5 13 11 21 15 19 13 31 31 28 26 33 34 33 32 31 30 28 26 24 22 21 21 21 20 20 19 18 18 18 17 15 13 14 15 15 16 19 20 24 23
3 4 8 5 4 6 7 3 5 5 7 8 22 25 15 37 38 34 33 37 37 36 34 33 31 29 27 26 24 24 23 23 23 22 21 19 17 17 16 15 14 14 14 15 17 18 20 23 25
7 5 6 14 26 27 14 17 13 4 10 23 12 16 25 40 40 38 36 38 36 34 33 32 32 30 29 28 27 25 24 24 23 21 20 20 20 20 19 18 16 14 15 16 16 18 22 22 27
3 13 12 14 16 14 10 11 8 17 34 28 22 27 33 45 46 42 41 40 39 37 32 31 31 33 32 29 27 26 25 24 23 22 21 21 21 21 20 18 17 15 14 15 15 19 22 22 25
6 5 3 11 11 15 21 17 11 18 29 30 23 35 39 44 41 39 37 38 39 38 35 32 32 34 33 32 31 28 27 26 24 24 23 22 21 20 19 19 16 14 14 13 15 18 21 21 22
7 12 15 7 8 9 8 11 7 19 15 13 28 44 37 28 19 36 42 40 41 38 37 34 33 32 34 33 31 29 27 25 25 24 23 23 22 19 21 19 17 14 12 13 14 17 19 21 21
8 6 10 16 10 6 4 6 6 23 7 10 32 37 36 44 33 41 50 47 40 40 38 37 33 31 36 33 31 30 28 27 25 24 24 23 23 21 21 20 18 14 11 11 12 16 20 22 22
4 4 4 6 4 5 3 9 11 23 8 17 29 35 42 49 41 40 46 44 44 38 41 37 35 34 34 34 33 31 30 29 29 27 25 24 24 23 22 22 19 15 15 13 12 16 18 23 24
6 3 4 9 3 4 3 14 11 23 11 9 26 36 40 47 46 41 45 44 43 42 41 40 38 35 32 33 31 31 31 29 28 29 27 26 25 24 25 22 20 18 17 17 16 15 20 22 25
3 3 3 6 9 11 15 9 12 18 7 10 18 32 37 38 47 43 49 43 42 42 40 39 39 39 36 31 31 30 32 30 27 29 25 27 24 27 27 24 23 21 21 22 18 19 20 24 24
4 5 6 9 16 1 10 7 8 10 4 4 5 20 31 37 43 40 42 40 39 41 43 42 42 42 42 41 38 36 35 33 32 32 29 24 26 24 30 27 25 24 24 23 20 19 21 22 24
7 4 10 9 12 6 8 9 7 6 4 3 6 12 24 32 30 25 34 39 47 48 45 45 44 45 45 45 41 38 34 35 34 32 29 23 26 28 26 28 28 26 25 25 23 21 22 22 23
4 6 6 10 3 1 2 9 8 11 8 23 11 11 10 9 25 29 30 40 46 50 54 53 48 47 47 46 44 42 37 36 36 36 33 32 28 27 27 27 27 27 26 27 28 26 24 24 23
1 7 7 6 3 4 3 3 6 9 9 17 20 21 16 14 6 9 19 41 47 51 54 57 55 49 49 48 49 47 45 43 41 39 37 34 31 29 27 27 27 28 29 28 26 28 28 25 27
7 1 3 3 4 3 4 5 7 6 9 7 7 8 8 6 7 4 3 7 28 39 47 53 55 54 53 52 51 50 48 43 39 40 40 38 35 33 30 28 28 29 30 30 30 28 31 31 28
3 5 7 5 3 4 4 4 5 3 3 7 5 9 4 6 5 4 8 13 21 32 41 46 49 53 55 55 53 52 52 47 44 42 43 42 39 38 36 34 32 32 32 33 33 28 30 31 29
12 7 4 4 5 5 4 2 7 3 3 3 8 13 14 14 11 7 6 7 15 22 25 50 49 51 51 53 51 51 49 48 46 43 40 41 41 39 39 38 35 33 33 32 32 29 29 30 32
4 5 4 4 3 6 2 4 4 6 2 5 8 13 14 15 12 9 5 8 10 13 19 39 41 46 47 47 50 50 49 48 47 44 40 38 37 37 34 35 34 32 31 30 27 26 22 27 32
5 4 4 3 3 1 3 2 6 2 1 3 10 14 15 16 15 14 12 8 11 9 15 31 34 35 38 41 43 46 49 47 48 45 40 37 34 32 30 26 27 28 27 28 29 29 24 23 27
3 3 4 4 3 3 4 3 4 5 2 1 7 12 15 14 13 13 13 13 8 7 13 20 25 28 31 28 29 36 46 44 45 47 44 41 36 33 31 27 25 25 25 27 30 29 26 24 23
5 4 4 3 3 2 1 6 4 2 3 5 7 10 13 13 14 16 18 15 14 10 17 18 18 24 24 14 19 30 38 37 41 47 47 42 38 34 32 28 26 24 25 26 25 26 25 23 22
1 5 4 4 6 2 3 6 4 3 2 4 10 16 11 11 9 12 14 14 12 2 9 13 14 13 18 18 7 19 33 32 35 40 47 43 41 37 32 30 29 28 26 25 24 23 23 24 23
Wind_Direction
134 86 1 345 336 59 286 315 305 113 135 201 144 152 180 119 170 204 145 163 154 162 165 165 163 168 166 153 151 139 135 138 139 137 140 144 144 148 154 157 154 154 153 144 146 144 139 146 151
117 101 10 346 346 29 315 331 343 349 118 139 118 122 99 46 148 140 151 168 168 166 170 174 173 175 172 164 160 161 154 152 152 150 149 149 150 152 154 160 161 159 158 153 150 147 144 149 153
111 158 88 84 349 42 303 338 342 32 133 155 110 87 123 140 147 147 156 163 175 178 183 184 180 175 175 171 168 168 166 157 154 158 156 155 156 158 160 164 166 166 168 159 154 154 160 156 151
128 265 57 77 18 359 320 324 317 341 358 6 132 89 99 118 143 153 158 164 171 174 181 184 181 179 175 173 173 173 171 171 162 163 164 161 160 157 159 162 166 165 166 167 159 151 159 155 145
135 43 55 95 350 311 320 307 65 291 314 329 66 150 116 144 149 156 163 172 176 174 175 180 180 179 178 177 178 180 177 172 169 167 171 166 161 156 156 157 159 165 167 164 157 150 157 155 148
97 137 61 62 320 332 70 311 6 307 330 252 84 91 127 197 169 161 172 176 182 176 176 179 180 178 178 178 179 178 179 178 176 171 169 167 162 163 160 162 160 161 166 167 162 160 161 158 153
135 90 72 51 345 319 238 224 148 260 315 351 125 351 268 183 178 162 175 182 181 183 180 181 180 182 181 181 180 181 180 178 179 179 178 174 172 169 167 167 169 168 171 173 170 165 167 167 159
101 94 161 234 186 259 268 325 284 168 211 289 197 213 254 182 176 171 180 182 181 188 187 183 182 183 184 184 184 183 183 182 180 179 180 181 179 176 172 174 170 176 173 171 167 165 168 172 169
81 75 224 219 158 236 139 228 153 163 190 207 203 250 281 185 178 175 179 182 187 189 191 189 186 187 187 185 185 184 185 184 182 181 182 181 181 180 181 177 174 179 175 172 165 168 173 174 177
126 135 220 224 219 244 159 137 185 259 242 225 234 243 244 185 180 182 184 184 190 192 193 194 192 188 190 190 189 188 185 185 186 187 187 186 183 181 179 181 177 179 180 177 174 175 179 183 183
186 203 192 258 254 257 284 285 248 264 279 257 220 165 188 184 190 189 193 190 188 191 192 196 197 195 194 195 194 191 191 190 189 187 187 186 185 182 181 182 180 182 186 190 184 180 179 185 188
217 240 239 264 267 254 248 261 237 223 246 267 262 217 192 196 196 197 197 196 194 196 195 199 202 201 199 200 202 200 195 193 193 193 191 191 187 186 185 185 186 184 190 195 190 182 179 181 188
219 264 242 259 274 246 257 264 256 243 272 263 255 202 197 194 196 206 206 202 201 204 202 203 207 207 205 204 205 204 202 200 196 195 195 196 194 191 186 183 185 188 194 195 195 190 193 191 193
292 310 300 289 278 240 200 257 215 284 295 248 203 193 186 169 167 229 218 213 208 210 209 207 209 211 209 209 210 210 208 204 201 200 200 199 198 196 193 186 182 187 192 199 203 199 199 201 200
317 346 327 303 297 306 228 314 248 318 292 204 194 188 178 193 209 214 218 214 211 209 209 211 209 209 210 210 212 213 212 210 206 205 204 204 200 201 204 202 198 198 193 197 204 206 206 204 202
9 34 9 275 306 292 83 283 285 316 320 228 197 187 190 204 211 217 214 217 214 209 208 211 211 210 210 212 213 213 212 215 212 210 208 208 209 208 208 208 206 197 199 204 209 213 216 211 212
0 248 281 311 172 13 28 295 279 318 328 290 204 193 198 210 214 217 220 220 215 213 212 211 213 213 210 210 211 214 212 218 211 209 209 208 209 210 212 213 213 215 216 217 220 228 224 216 215
213 237 254 263 298 349 314 273 292 320 324 313 221 199 201 211 223 222 216 224 225 213 216 218 217 217 213 211 211 213 213 215 208 204 208 213 215 217 216 223 223 223 230 230 229 234 232 224 222
197 191 235 271 282 230 268 278 288 308 316 333 242 211 198 208 229 240 227 221 226 227 221 220 220 221 217 213 212 212 214 214 214 212 216 220 217 224 223 228 230 227 231 237 239 245 240 234 224
205 230 265 278 263 146 271 290 288 285 329 296 254 218 215 220 232 230 223 223 225 230 231 224 225 225 222 220 217 219 218 220 221 222 221 221 222 228 227 227 228 234 238 244 247 246 246 240 231
208 181 239 218 289 203 4 328 352 330 72 42 22 50 45 254 245 248 236 235 230 225 232 235 228 228 227 225 222 219 222 226 225 225 222 223 224 226 231 231 233 240 246 249 250 248 241 235 232
311 210 212 226 73 298 68 277 340 330 336 45 50 44 32 32 357 291 262 246 239 236 235 233 235 229 230 228 225 223 223 223 225 227 226 226 230 229 232 234 239 244 246 247 251 252 244 238 236
248 242 277 66 96 37 7 88 261 1 349 24 31 54 37 2 7 345 277 248 240 237 234 233 235 232 231 230 230 229 229 233 233 230 233 233 233 235 235 236 238 242 244 249 251 248 240 241 246
284 23 41 52 82 27 248 122 294 306 265 305 15 29 71 29 63 5 268 252 232 235 239 236 235 235 231 231 230 231 234 233 231 232 234 236 237 237 238 240 242 245 249 252 254 258 244 240 239
43 46 352 8 6 233 155 50 232 260 272 253 299 3 22 32 33 54 42 314 290 280 245 236 235 232 231 229 229 231 234 240 243 242 240 238 239 238 239 239 239 245 249 253 256 260 243 243 241
34 114 156 256 218 255 128 195 247 196 198 307 328 334 342 8 356 10 25 334 306 282 259 231 231 227 227 227 228 234 232 240 244 248 248 245 242 240 240 240 241 246 253 255 255 262 256 239 243
321 4 201 160 2 52 288 347 319 248 344 358 327 342 332 325 345 1 6 330 303 281 234 225 221 219 220 223 225 230 240 237 243 247 250 247 244 243 237 238 239 245 254 262 253 256 254 251 252
103 271 5 10 1 317 307 273 239 268 240 337 321 339 333 324 334 332 341 337 302 237 194 192 207 201 201 211 228 234 237 238 242 246 245 246 242 239 238 237 242 248 255 261 257 262 260 249 250
4 27 19 115 126 170 286 279 250 264 264 305 293 330 322 315 326 332 332 333 331 218 190 178 168 179 186 179 227 230 239 239 241 245 246 245 243 237 238 239 242 249 256 256 256 256 250 248 246
165 109 112 100 300 240 175 266 274 266 312 259 293 315 307 305 321 346 356 349 342 20 222 236 220 216 208 213 232 231 233 238 242 246 248 245 242 239 235 240 242 248 254 256 258 251 244 246 246
Height
1500 1499 1499 1501 1510 1505 1505 1490 1473 1475 1476 1474 1477 1480 1481 1481 1484 1497 1483 1490 1495 1500 1505 1509 1513 1517 1520 1521 1523 1523 1525 1528 1530 1532 1535 1537 1538 1540 1541 1543 1544 1547 1548 1550 1551 1552 1554 1556 1558
1498 1499 1499 1501 1510 1516 1508 1484 1483 1475 1473 1476 1477 1479 1480 1484 1482 1481 1484 1491 1497 1500 1504 1508 1513 1516 1520 1522 1524 1526 1528 1530 1532 1534 1537 1539 1540 1541 1543 1544 1546 1548 1550 1551 1553 1554 1556 1557 1558
1498 1499 1504 1502 1510 1516 1511 1487 1487 1480 1478 1477 1477 1478 1480 1482 1483 1485 1488 1491 1497 1501 1506 1509 1512 1516 1519 1522 1524 1527 1529 1531 1532 1536 1538 1540 1541 1542 1544 1545 1547 1548 1551 1552 1554 1555 1556 1558 1559
1500 1501 1505 1510 1511 1501 1498 1492 1485 1487 1482 1479 1477 1480 1481 1481 1483 1488 1490 1494 1497 1500 1506 1509 1512 1515 1519 1521 1523 1526 1530 1533 1534 1536 1538 1540 1541 1542 1544 1546 1547 1549 1551 1552 1555 1556 1557 1559 1560
1502 1502 1510 1511 1513 1501 1493 1490 1487 1487 1486 1484 1482 1480 1481 1483 1485 1488 1491 1495 1498 1501 1505 1509 1513 1515 1518 1521 1524 1526 1528 1532 1534 1536 1538 1539 1541 1543 1545 1546 1548 1549 1551 1553 1556 1557 1558 1560 1562
1500 1502 1516 1520 1512 1499 1494 1487 1489 1490 1485 1483 1483 1486 1486 1485 1487 1489 1493 1495 1500 1502 1506 1509 1512 1515 1518 1521 1524 1526 1529 1531 1534 1536 1537 1539 1541 1543 1545 1547 1549 1550 1552 1554 1556 1558 1559 1561 1563
1498 1504 1518 1512 1503 1498 1492 1488 1491 1493 1491 1489 1492 1492 1487 1486 1489 1490 1493 1496 1501 1505 1506 1509 1511 1515 1517 1519 1522 1525 1528 1531 1533 1535 1537 1539 1541 1543 1545 1547 1549 1551 1553 1555 1557 1559 1560 1562 1565
1497 1501 1511 1506 1498 1501 1489 1488 1488 1485 1491 1489 1488 1488 1493 1488 1488 1491 1494 1497 1500 1505 1508 1509 1511 1514 1516 1519 1521 1524 1526 1529 1532 1534 1536 1539 1541 1543 1545 1547 1549 1551 1552 1555 1556 1559 1561 1563 1565
1498 1507 1513 1501 1501 1494 1487 1488 1485 1482 1473 1476 1480 1481 1484 1490 1489 1489 1492 1495 1499 1502 1506 1508 1510 1513 1516 1518 1520 1523 1525 1527 1530 1533 1535 1538 1540 1543 1545 1547 1548 1551 1553 1554 1557 1559 1562 1564 1567
1499 1510 1504 1491 1486 1484 1484 1485 1486 1484 1476 1476 1474 1477 1479 1485 1484 1486 1488 1491 1495 1500 1503 1506 1508 1511 1514 1517 1520 1522 1524 1527 1529 1532 1534 1537 1539 1542 1544 1546 1548 1551 1553 1554 1556 1559 1562 1564 1566
1494 1500 1492 1487 1483 1481 1480 1480 1484 1482 1476 1471 1473 1476 1478 1483 1485 1481 1487 1489 1491 1497 1501 1503 1506 1509 1513 1516 1518 1521 1524 1527 1529 1531 1534 1536 1539 1541 1542 1545 1547 1550 1552 1554 1556 1557 1560 1563 1566
1494 1487 1486 1483 1481 1483 1480 1478 1475 1477 1464 1469 1469 1472 1470 1475 1476 1478 1481 1486 1490 1494 1497 1500 1504 1507 1510 1513 1516 1519 1522 1525 1528 1530 1533 1536 1538 1540 1542 1544 1546 1549 1552 1554 1556 1557 1560 1562 1565
1488 1483 1481 1481 1479 1478 1477 1475 1472 1467 1466 1464 1466 1467 1467 1471 1479 1486 1484 1486 1489 1491 1494 1496 1500 1503 1507 1510 1514 1518 1520 1523 1526 1529 1532 1535 1537 1539 1542 1544 1546 1549 1551 1553 1555 1558 1560 1561 1564
1483 1480 1477 1476 1474 1474 1474 1470 1472 1461 1458 1454 1457 1461 1469 1484 1484 1487 1489 1482 1484 1488 1491 1494 1496 1500 1504 1507 1511 1515 1519 1522 1525 1528 1531 1534 1536 1539 1542 1544 1545 1547 1549 1552 1555 1557 1559 1561 1563
1483 1484 1477 1471 1469 1470 1468 1470 1466 1457 1457 1455 1456 1462 1469 1465 1458 1460 1469 1475 1475 1480 1487 1490 1493 1496 1499 1503 1508 1512 1516 1519 1522 1525 1529 1532 1535 1537 1540 1543 1545 1547 1549 1551 1553 1555 1557 1558 1560
1487 1488 1497 1473 1470 1468 1467 1480 1459 1455 1456 1452 1454 1458 1461 1459 1457 1456 1460 1473 1477 1477 1480 1486 1491 1494 1497 1501 1505 1509 1513 1515 1519 1522 1526 1530 1533 1536 1538 1540 1543 1546 1547 1549 1551 1554 1555 1556 1558
1500 1506 1497 1484 1468 1471 1471 1475 1454 1453 1453 1450 1450 1453 1456 1457 1458 1461 1460 1466 1471 1476 1479 1483 1487 1490 1495 1498 1503 1506 1510 1512 1516 1519 1523 1527 1530 1533 1535 1538 1541 1544 1546 1547 1549 1551 1552 1554 1555
1504 1502 1497 1495 1472 1470 1472 1472 1456 1451 1451 1449 1447 1448 1451 1455 1453 1457 1461 1463 1468 1469 1475 1480 1484 1487 1492 1497 1501 1504 1507 1510 1513 1516 1520 1523 1527 1530 1533 1536 1538 1541 1543 1545 1547 1547 1550 1551 1553
1489 1496 1499 1486 1472 1478 1473 1471 1457 1451 1450 1446 1443 1444 1448 1450 1445 1449 1462 1471 1470 1469 1470 1472 1478 1483 1488 1491 1495 1499 1502 1506 1510 1513 1517 1520 1524 1527 1530 1533 1536 1538 1540 1542 1544 1545 1547 1547 1549
1488 1495 1494 1483 1470 1478 1472 1465 1455 1450 1449 1445 1442 1445 1447 1447 1451 1453 1459 1462 1465 1466 1465 1467 1471 1475 1480 1485 1490 1495 1499 1502 1506 1510 1513 1516 1519 1523 1525 1527 1530 1533 1536 1538 1540 1542 1543 1543 1545
1484 1490 1486 1486 1471 1470 1469 1475 1465 1450 1453 1455 1452 1449 1448 1449 1451 1452 1455 1454 1453 1458 1458 1461 1463 1470 1475 1481 1487 1490 1495 1498 1501 1504 1508 1511 1514 1518 1521 1524 1526 1529 1531 1533 1535 1538 1540 1540 1543
1483 1468 1469 1473 1481 1497 1474 1508 1476 1468 1460 1466 1462 1457 1455 1452 1450 1449 1448 1448 1448 1447 1455 1456 1462 1465 1471 1478 1482 1481 1482 1486 1491 1497 1502 1507 1512 1514 1517 1520 1523 1526 1527 1529 1530 1533 1535 1537 1539
1473 1463 1467 1467 1482 1484 1485 1502 1484 1476 1472 1472 1474 1467 1460 1456 1453 1449 1444 1444 1446 1449 1450 1452 1455 1460 1465 1470 1476 1481 1478 1481 1486 1492 1496 1501 1506 1509 1512 1515 1518 1520 1522 1524 1525 1527 1528 1531 1534
1461 1465 1475 1485 1492 1509 1487 1494 1494 1485 1476 1471 1469 1469 1464 1459 1450 1448 1445 1442 1440 1443 1444 1447 1449 1454 1460 1463 1468 1472 1478 1479 1480 1484 1490 1494 1499 1503 1506 1510 1512 1515 1516 1517 1518 1521 1523 1525 1527
1468 1485 1514 1510 1518 1515 1490 1494 1488 1473 1471 1470 1467 1463 1458 1455 1451 1447 1443 1444 1441 1438 1434 1436 1440 1444 1450 1457 1466 1472 1479 1484 1486 1486 1488 1490 1494 1497 1499 1503 1506 1508 1510 1512 1513 1512 1515 1520 1521
1478 1489 1514 1519 1523 1508 1487 1496 1482 1468 1469 1469 1466 1462 1458 1453 1453 1448 1441 1441 1438 1435 1432 1432 1431 1436 1441 1449 1457 1464 1472 1477 1480 1484 1488 1490 1491 1493 1496 1498 1501 1503 1505 1507 1508 1509 1509 1512 1515
1482 1493 1484 1502 1504 1508 1500 1480 1471 1466 1469 1468 1465 1461 1456 1453 1450 1448 1446 1445 1441 1436 1433 1430 1428 1433 1435 1440 1449 1456 1461 1468 1473 1478 1483 1485 1489 1491 1492 1494 1497 1499 1501 1502 1504 1505 1506 1508 1511
1478 1479 1497 1505 1513 1510 1505 1489 1489 1471 1469 1468 1464 1460 1454 1451 1447 1445 1443 1443 1441 1437 1433 1432 1432 1429 1432 1437 1442 1449 1452 1459 1464 1469 1471 1474 1479 1483 1487 1489 1491 1495 1496 1498 1499 1500 1501 1503 1505
1491 1492 1495 1502 1511 1518 1522 1505 1473 1469 1466 1466 1461 1459 1457 1452 1447 1443 1440 1437 1436 1434 1435 1434 1434 1432 1431 1429 1435 1440 1443 1448 1454 1458 1464 1469 1473 1476 1482 1485 1487 1489 1491 1493 1493 1494 1496 1498 1500
1482 1489 1498 1516 1514 1512 1514 1505 1468 1465 1465 1465 1462 1460 1456 1452 1447 1444 1441 1435 1431 1431 1433 1434 1431 1426 1427 1426 1427 1428 1433 1438 1442 1449 1456 1463 1467 1472 1476 1481 1483 1485 1487 1487 1488 1488 1490 1493 1494